{"data":{"norad_id":58309,"epoch":"2026-05-25T04:53:04.111584Z","epoch_age_seconds":57390,"freshness":"FRESH","line1":"1 58309U 23174BF  26145.20351981  .00033561  00000+0  49889-3 0  9997","line2":"2 58309  97.3877 236.5066 0005590 212.4737 147.6174 15.55087339142239","mean_motion":15.55087339,"eccentricity":0.000559,"inclination_deg":97.3877,"raan_deg":236.5066,"arg_perigee_deg":212.4737,"mean_anomaly_deg":147.6174,"bstar":0.00049889,"rev_number":14223,"period_min":92.59930062359,"perigee_km":398.10871757028,"apogee_km":405.68879754723,"semimajor_km":6780.0357575588,"source":"CELESTRAK","updated_at":"2026-05-25T13:38:13.300586Z"}}